CW1120 Weather Reports


time (UTC)temp
F
wind
direction
speed
knots
gust
knots
rain 1hr
in
rain 24hr
in
rain mn
in
humidity
%
barometer
mb
20260506025152 33 126 1.7 5.2 0.00 0.00 0.00 93 1011.6
20260506024145 33 140 0.0 5.2 0.00 0.00 0.00 93 1011.6
20260506023135 33 129 3.5 6.1 0.00 0.00 0.00 93 1011.5
20260506022136 33 133 0.9 2.6 0.00 0.00 0.00 91 1011.4
20260506021129 33 117 1.7 5.2 0.00 0.00 0.00 92 1011.6
20260506020149 33 115 2.6 5.2 0.00 0.00 0.00 91 1011.6
20260506015159 33 130 0.0 2.6 0.00 0.00 0.00 90 1011.5
20260506014141 34 129 0.9 2.6 0.00 0.00 0.00 90 1011.4
20260506013155 35 128 0.0 2.6 0.00 0.00 0.00 90 1011.4
20260506012135 35 113 2.6 6.1 0.00 0.00 0.00 91 1011.4
20260506011139 35 105 4.3 7.0 0.00 0.00 0.00 93 1011.4
20260506010139 34 108 2.6 5.2 0.00 0.00 0.00 91 1011.4
20260506005149 34 121 0.0 1.7 0.00 0.00 0.00 91 1011.4
20260506004147 34 127 0.9 3.5 0.00 0.00 0.00 90 1011.4
20260506003201 34 113 1.7 3.5 0.00 0.00 0.00 90 1011.4
20260506002203 34 108 1.7 2.6 0.00 0.00 0.00 89 1011.5
20260506001143 34 126 0.0 1.7 0.00 0.00 0.00 89 1011.4
20260506000130 34 126 0.0 4.3 0.00 0.00 0.00 89 1011.4
20260505235132 34 153 2.6 6.1 0.00 0.00 0.00 89 1011.4
20260505234152 34 94 0.9 3.5 0.00 0.00 0.00 88 1011.4
20260505233143 34 130 3.5 6.1 0.00 0.00 0.00 88 1011.4
20260505232134 34 120 2.6 3.5 0.00 0.00 0.00 87 1011.4
20260505231152 34 102 0.0 2.6 0.00 0.00 0.00 87 1011.4
20260505230140 34 102 0.0 1.7 0.00 0.00 0.00 86 1011.6
20260505225134 34 102 0.9 2.6 0.00 0.00 0.00 86 1011.7
20260505224135 34 82 0.9 4.3 0.00 0.00 0.00 85 1011.7
20260505223209 34 63 3.5 4.3 0.00 0.00 0.00 85 1011.7
20260505222139 35 69 0.0 0.0 0.00 0.00 0.00 84 1011.7
20260505221213 35 69 0.0 1.7 0.00 0.00 0.00 84 1011.7
20260505220132 35 69 1.7 2.6 0.00 0.00 0.00 83 1011.8
20260505215154 35 91 1.7 2.6 0.00 0.00 0.00 82 1011.9
20260505214205 36 49 0.9 2.6 0.00 0.00 0.00 82 1011.9
20260505213206 36 49 0.0 2.6 0.00 0.00 0.00 82 1011.9
20260505212133 36 49 1.7 3.5 0.00 0.00 0.00 81 1011.8
20260505211156 37 49 3.5 4.3 0.00 0.00 0.00 81 1011.8
20260505210131 37 157 0.0 0.0 0.00 0.00 0.00 80 1011.9
20260505205149 37 159 0.0 2.6 0.00 0.00 0.00 80 1011.9
20260505204142 37 162 2.6 3.5 0.00 0.00 0.00 79 1011.8
20260505203144 38 275 0.0 0.0 0.00 0.00 0.00 79 1011.7
20260505202153 38 275 0.0 1.7 0.00 0.00 0.00 78 1011.8
20260505201130 38 279 1.7 2.6 0.00 0.00 0.00 77 1011.7
20260505200136 39 311 0.9 1.7 0.00 0.00 0.00 77 1011.6
20260505195159 39 304 0.9 1.7 0.00 0.00 0.00 76 1011.6
20260505194129 40 285 0.9 1.7 0.00 0.00 0.00 74 1011.7
20260505193149 41 290 0.9 4.3 0.00 0.00 0.00 72 1011.5
20260505192143 42 289 2.6 3.5 0.00 0.00 0.00 70 1011.5
20260505191138 43 310 1.7 3.5 0.00 0.00 0.00 68 1011.4
20260505190202 44 314 1.7 4.3 0.00 0.00 0.00 65 1011.3
20260505185133 45 281 4.3 6.1 0.00 0.00 0.00 62 1011.3
20260505184155 46 294 2.6 6.1 0.00 0.00 0.00 61 1011.3
20260505183129 47 286 3.5 4.3 0.00 0.00 0.00 59 1011.2
20260505182140 47 302 4.3 7.8 0.00 0.00 0.00 58 1011.2
20260505181204 48 290 6.1 8.7 0.00 0.00 0.00 61 1011.2
20260505180136 48 272 6.1 8.7 0.00 0.00 0.00 61 1011.2
20260505175130 48 292 6.1 8.7 0.00 0.00 0.00 56 1011.2
20260505174133 49 280 6.1 8.7 0.00 0.00 0.00 57 1011.1
20260505173127 49 285 7.0 8.7 0.00 0.00 0.00 56 1011.2
20260505172150 49 254 6.1 8.7 0.00 0.00 0.00 58 1011.2
20260505171144 49 308 4.3 9.6 0.00 0.00 0.00 60 1011.1
20260505170138 49 273 7.0 9.6 0.00 0.00 0.00 54 1011.1
20260505165131 49 250 7.8 10.4 0.00 0.00 0.00 59 1011.1
20260505164210 50 271 7.0 10.4 0.00 0.00 0.00 57 1011.1
20260505163202 49 248 7.8 11.3 0.00 0.00 0.00 59 1011.0
20260505162146 50 252 6.1 11.3 0.00 0.00 0.00 54 1011.0
20260505161142 50 254 7.8 11.3 0.00 0.00 0.00 55 1011.1
20260505160137 50 272 7.0 12.2 0.00 0.00 0.00 54 1011.2
20260505153127 51 284 9.6 11.3 0.00 0.00 0.00 52 1011.2
20260505152143 50 273 7.8 10.4 0.00 0.00 0.00 53 1011.2
20260505151133 50 275 5.2 11.3 0.00 0.00 0.00 51 1011.1
20260505150151 49 283 8.7 12.2 0.00 0.00 0.00 55 1011.2
20260505140146 49 284 7.8 13.0 0.00 0.00 0.00 52 1011.3
20260505130154 49 287 9.6 17.4 0.00 0.00 0.00 52 1011.2
20260505124146 49 290 10.4 17.4 0.00 0.00 0.00 53 1011.4
20260505123140 49 297 10.4 15.6 0.00 0.00 0.00 58 1011.4
20260505122130 49 297 6.1 14.8 0.00 0.00 0.00 58 1011.4
20260505121152 49 329 10.4 17.4 0.00 0.00 0.00 56 1011.4
20260505120127 49 328 8.7 13.9 0.00 0.00 0.00 59 1011.3
20260505115140 49 286 9.6 15.6 0.00 0.00 0.00 60 1011.3
20260505114131 49 276 8.7 17.4 0.00 0.00 0.00 59 1011.4
20260505113134 49 240 10.4 14.8 0.00 0.00 0.00 59 1011.3
20260505112127 49 280 8.7 14.8 0.00 0.00 0.00 60 1011.3
20260505111150 49 284 8.7 14.8 0.00 0.00 0.00 59 1011.3
20260505110142 49 294 9.6 13.9 0.00 0.00 0.00 56 1011.3
20260505102137 49 303 7.0 14.8 0.00 0.00 0.00 55 1011.1
20260505101156 49 271 7.0 14.8 0.00 0.00 0.00 59 1011.2
20260505100128 48 284 8.7 14.8 0.00 0.00 0.00 57 1011.1
20260505095127 48 269 9.6 17.4 0.00 0.00 0.00 59 1011.2
20260505094139 48 279 11.3 15.6 0.00 0.00 0.00 57 1011.3
20260505093132 48 278 7.8 13.0 0.00 0.00 0.00 55 1011.0
20260505092132 48 252 8.7 13.9 0.00 0.00 0.00 57 1011.0
20260505091145 48 315 4.3 14.8 0.00 0.00 0.00 55 1011.0
20260505090137 48 307 12.2 15.6 0.00 0.00 0.00 55 1011.1
20260505085130 48 267 10.4 14.8 0.00 0.00 0.00 53 1010.9
20260505084152 48 290 7.0 13.0 0.00 0.00 0.00 54 1010.8
20260505083204 48 281 7.8 13.0 0.00 0.00 0.00 53 1010.6
20260505082141 48 308 6.1 13.0 0.00 0.00 0.00 54 1010.4
20260505081127 48 312 7.0 13.9 0.00 0.00 0.00 53 1010.4
20260505080145 48 275 7.0 13.9 0.00 0.00 0.00 55 1010.4
20260505075204 48 290 8.7 13.9 0.00 0.00 0.00 56 1010.3
20260505074134 47 348 4.3 15.6 0.00 0.00 0.00 52 1010.3
20260505073145 47 317 5.2 16.5 0.00 0.00 0.00 54 1010.3
20260505072147 48 297 7.0 16.5 0.00 0.00 0.00 52 1010.3
20260505071155 48 303 7.8 13.9 0.00 0.00 0.00 55 1010.2
20260505070138 48 275 4.3 9.6 0.00 0.00 0.00 54 1010.1
20260505065152 48 325 5.2 9.6 0.00 0.00 0.00 55 1010.1
20260505064134 48 325 5.2 8.7 0.00 0.00 0.00 55 1010.0
20260505063145 48 325 4.3 11.3 0.00 0.00 0.00 54 1009.9
20260505062133 47 339 5.2 9.6 0.00 0.00 0.00 57 1009.9
20260505061132 46 303 4.3 9.6 0.00 0.00 0.00 56 1009.9
20260505060144 46 313 7.0 13.0 0.00 0.00 0.00 58 1009.9
20260505055147 46 333 7.8 12.2 0.00 0.00 0.00 59 1009.8
20260505054136 47 284 3.5 7.8 0.00 0.00 0.00 60 1009.8
20260505053129 46 17 0.0 5.2 0.00 0.00 0.00 61 1009.7
20260505052149 45 15 0.9 4.3 0.00 0.00 0.00 62 1009.6
20260505051140 45 328 0.0 7.0 0.00 0.00 0.00 64 1009.5
20260505050126 43 33 1.7 8.7 0.00 0.00 0.00 73 1009.4
20260505041141 40 5 1.7 4.3 0.00 0.00 0.00 77 1009.1
20260505040140 41 19 0.0 2.6 0.00 0.00 0.00 75 1009.0
20260505035133 42 9 1.7 3.5 0.00 0.00 0.00 73 1008.9
20260505034145 43 355 0.9 6.1 0.00 0.00 0.00 73 1008.8
20260505033148 43 322 1.7 4.3 0.00 0.00 0.00 73 1008.8
20260505032133 43 338 2.6 7.0 0.00 0.00 0.00 73 1008.6
20260505031153 44 323 2.6 7.8 0.00 0.00 0.00 73 1008.6
20260505030147 44 317 3.5 7.8 0.00 0.00 0.00 73 1008.5